Location: Domont
(49.0278°N, 2.3264°E)
Time: 08:17:29
(UTC+00:00)

Cosmos 2251 Rocket - Pass Details

Date: 16 October 2021
Orbit: 765 x 791 km, 74.0° (Epoch: 02 December)

Event Time Altitude Azimuth Distance (km) Brightness Sun altitude
Rises 19:17:25 0° 339° (NNW) 3,262 7.2 -23.4°
Reaches altitude 10° 19:19:53 10° 345° (NNW) 2,327 6.3 -23.8°
Enters shadow 19:24:26 47° 39° (NE) 1,015 3.9 -24.5°
